[[{"header":{"parameterUnit":"m.s-1","parameterCategory":1,"la1":30.2991,"la2":30.254,"lo1":-89.0895,"lo2":-89.0444,"dy":0.0017,"dx":0.0017,"nx":28,"ny":28,"refTime":"2025-07-17T09:00:00:Z","depth":0,"parameterNumber":2,"parameterNumberName":"U-component_of_WINDS"},"data":[0,0,0,0,0,0,0,0,0,0,0,0,0,0,0,0,0,0,0,0,0,0,0,0,0,0,0,0,0,0,0,0,0,0,0,0,0,0,0,0,0,0,0,0,0,0,0,0,0,0,0,0,0,0,0,0,0,0,1.4834,1.4834,0,1.4859,1.486,1.486,1.4832,1.4831,1.483,1.4829,1.4856,1.4857,1.4859,0,0,0,0,0,0,0,0,0,0,0,0,0,1.4762,1.4763,1.4834,1.4834,1.4835,1.4859,1.486,1.486,1.4832,1.4831,1.483,1.4829,1.4855,1.4857,1.4859,0,0,0,0,0,0,0,0,0,0,0,0,0,1.4791,1.4764,1.4834,1.4824,1.4823,1.4859,1.486,1.486,1.4833,1.4831,1.483,1.4828,1.4854,1.4857,1.4859,1.4907,0,0,1.4867,1.4868,0,0,0,0,0,0,0,0,1.4789,1.4794,1.4825,1.4825,1.4824,1.4841,1.4844,1.4876,1.4833,1.4829,1.4829,1.4827,1.4852,1.4855,1.4863,1.4908,1.4909,1.4867,1.4869,1.487,1.4871,0,0,0,0,0,0,0,1.4787,1.4792,1.4844,1.4826,1.4825,1.4818,1.482,1.485,1.4849,1.4829,1.4827,1.4831,1.4852,1.4861,1.4863,1.4909,1.4867,1.487,1.4871,1.4872,1.4993,1.4995,0,0,0,0,0,0,1.4786,1.4791,1.4843,1.4845,1.4802,1.4821,1.4823,1.4837,1.4849,1.4849,1.4832,1.4829,1.4857,1.486,1.4864,1.4919,1.487,1.4872,1.4874,1.4992,1.4994,1.4996,0,0,0,0,0,0,1.4785,1.4791,1.4842,1.4817,1.4823,1.4824,1.4839,1.4838,1.4847,1.4851,1.4851,1.4841,1.4856,1.4861,1.4896,1.492,1.4873,1.4876,1.499,1.4992,1.4995,1.503,0,0,0,0,0,0,1.4783,1.4791,1.4809,1.4818,1.4825,1.4874,1.4841,1.484,1.4852,1.4849,1.486,1.486,1.4855,1.4892,1.4899,1.4922,1.4878,1.4988,1.4991,1.4994,1.5027,1.5034,1.504,0,0,0,0,0,1.4781,1.4818,1.481,1.4816,1.4847,1.4875,1.4879,1.4872,1.4854,1.4872,1.4874,1.486,1.4917,1.4896,1.4903,1.4928,1.4986,1.499,1.4994,1.5024,1.5032,1.5039,0,0,0,0,0,0,1.4812,1.4819,1.481,1.4852,1.4863,1.487,1.4893,1.4882,1.4898,1.4894,1.4886,1.4889,1.4926,1.4931,1.4908,1.4974,1.4948,1.4954,1.4969,1.4977,1.4983,1.4981,1.488,0,0,0,0,0,1.4824,1.4846,1.4851,1.4888,1.4894,1.4892,1.4904,1.4898,1.491,1.4914,1.4919,1.493,1.4951,1.4964,1.4983,1.5028,1.5029,1.5049,1.5055,1.506,1.5064,1.5087,1.5095,1.5008,1.5008,1.5008,0,0,1.4849,1.4855,1.487,1.4894,1.4902,1.4925,1.4896,1.4922,1.4939,1.4918,1.4951,1.4955,1.4968,1.5008,1.5025,1.5013,1.5089,1.5065,1.5069,1.507,1.5092,1.51,1.5107,1.5011,1.501,1.501,0,0,1.4905,1.4913,1.4943,1.4952,1.4964,1.4963,1.497,1.4979,1.4981,1.5014,1.4999,1.5019,1.5055,1.5064,1.5073,1.5133,1.512,1.5139,1.5171,1.5194,1.5201,1.5207,1.5227,1.5234,1.5144,1.5144,1.5144,0,1.4934,1.4967,1.496,1.4987,1.4997,1.498,1.501,1.5019,1.5037,1.5045,1.5031,1.5074,1.5082,1.5123,1.5137,1.5146,1.5153,1.5137,1.52,1.5206,1.5212,1.5231,1.5238,1.5146,1.5146,1.5146,1.5145,0,1.5002,1.5026,1.5049,1.5066,1.508,1.5108,1.5105,1.512,1.5113,1.5113,1.5147,1.5155,1.5175,1.5185,1.5178,1.5225,1.5216,1.5202,1.5175,1.5222,1.524,1.5247,1.5149,1.5148,1.5148,1.5147,0,0,1.5078,1.5091,1.5099,1.5106,1.5119,1.5137,1.5165,1.5184,1.5196,1.5209,1.5231,1.5262,1.5248,1.5259,1.5253,1.5273,1.5318,1.5256,1.5256,1.5266,1.5369,1.5379,1.5387,1.5311,1.5312,1.5313,1.5367,0,1.5133,1.518,1.5175,1.522,1.5241,1.5225,1.5249,1.5259,1.526,1.5278,1.528,1.5301,1.5282,1.5288,1.5307,1.5309,1.5339,1.5305,1.533,1.5331,1.5326,1.5397,1.5408,1.5458,1.5374,1.5375,1.5376,0,1.5203,1.5218,1.5266,1.5274,1.5283,1.5304,1.5321,1.5339,1.535,1.535,1.5361,1.5353,1.538,1.5354,1.5392,1.5369,1.5379,1.5382,1.5384,1.5385,1.5356,1.5398,1.5474,1.5481,1.5387,1.5386,1.5386,0,1.5252,1.5284,1.5316,1.5323,1.5335,1.535,1.5355,1.5365,1.5377,1.5392,1.5399,1.5417,1.5427,1.5441,1.5437,1.5419,1.5475,1.5449,1.5475,1.5475,1.5486,1.5485,1.5563,1.5495,1.5495,1.5495,1.5495,0,1.5313,1.5342,1.5338,1.5358,1.539,1.5384,1.5415,1.5419,1.5428,1.5447,1.5435,1.5454,1.5449,1.5467,1.5465,1.5495,1.55,1.55,1.5499,1.55,1.55,1.5506,1.5502,1.5497,1.5497,1.5496,1.5496,0,1.5372,1.5371,1.5404,1.5412,1.5415,1.5438,1.5445,1.5463,1.5463,1.5489,1.5494,1.5495,1.5516,1.5514,1.5539,1.5537,1.5574,1.557,1.557,1.5569,1.5593,1.5591,1.5677,1.5687,1.5614,1.5615,1.5615,0,1.541,1.5432,1.5442,1.5455,1.5461,1.5481,1.5493,1.5488,1.55,1.5515,1.5531,1.5551,1.5567,1.5602,1.5604,1.5623,1.5617,1.5647,1.562,1.5621,1.5616,1.5614,1.5616,1.5651,1.5652,1.5653,1.5653,0,1.5478,1.5476,1.5494,1.5511,1.5525,1.5538,1.555,1.5561,1.5557,1.5572,1.5594,1.5606,1.563,1.565,1.5667,1.5673,1.5662,1.5662,1.5668,1.5669,1.5668,1.5667,1.5583,1.5659,1.5659,1.5658,1.5658,1.5658,1.5527,1.5545,1.5555,1.5574,1.5583,1.5594,1.5612,1.5614,1.5632,1.5651,1.5647,1.5671,1.5682,1.5704,1.5711,1.5729,1.5719,1.5729,1.5731,1.5733,1.5735,1.5666,1.5733,1.5733,1.5733,1.5732,1.5732,0,1.5592,1.5598,1.5616,1.5633,1.5648,1.5637,1.565,1.5664,1.5685,1.5695,1.5711,1.5735,1.5755,1.5759,1.5777,1.5791,1.5787,1.5796,1.5794,1.5795,1.5744,1.5736,1.5799,1.5799,1.5799,1.5799,1.5799,1.5799,1.5628,1.5658,1.5658,1.5692,1.5697,1.572,1.5728,1.5739,1.5747,1.5774,1.579,1.5793,1.5801,1.582,1.5837,1.5838,1.5844,1.5855,1.5854,1.5806,1.5799,1.5793,1.5785,1.5857,1.5857,1.5904,1.5904,1.5904]},{"header":{"parameterUnit":"m.s-1","parameterCategory":1,"la1":30.2991,"la2":30.254,"lo1":-89.0895,"lo2":-89.0444,"dy":0.0017,"dx":0.0017,"nx":28,"ny":28,"refTime":"2025-07-17T09:00:00:Z","depth":0,"parameterNumber":3,"parameterNumberName":"V-component_of_WINDS"},"data":[0,0,0,0,0,0,0,0,0,0,0,0,0,0,0,0,0,0,0,0,0,0,0,0,0,0,0,0,0,0,0,0,0,0,0,0,0,0,0,0,0,0,0,0,0,0,0,0,0,0,0,0,0,0,0,0,0,0,4.9415,4.9418,0,4.9652,4.9655,4.9658,4.9703,4.9701,4.9699,4.9697,4.9934,4.9942,4.995,0,0,0,0,0,0,0,0,0,0,0,0,0,4.8995,4.9002,4.9415,4.9418,4.9421,4.9652,4.9655,4.9658,4.9703,4.9701,4.9698,4.9696,4.9931,4.9941,4.9951,0,0,0,0,0,0,0,0,0,0,0,0,0,4.9199,4.9005,4.9414,4.9471,4.9479,4.9651,4.9655,4.9659,4.9703,4.9701,4.9698,4.9695,4.9928,4.994,4.9952,5.0083,0,0,4.9989,4.9994,0,0,0,0,0,0,0,0,4.9187,4.9214,4.946,4.9468,4.9476,4.9645,4.9594,4.9801,4.9704,4.9618,4.9697,4.9694,4.984,4.9859,4.9909,5.0094,5.0104,4.999,4.9997,5.0002,5.0006,0,0,0,0,0,0,0,4.9173,4.9204,4.9509,4.9463,4.9473,4.9483,4.9509,4.9633,4.9741,4.9625,4.9629,4.9657,4.9844,4.9898,4.9915,5.0108,4.9989,5.0,5.0008,5.0012,5.0411,5.0414,0,0,0,0,0,0,4.915,4.9192,4.9501,4.9516,4.9322,4.9493,4.9522,4.9594,4.974,4.976,4.9659,4.9658,4.9878,4.9901,4.9924,5.0087,5.0002,5.0014,5.0021,5.0408,5.0412,5.0415,0,0,0,0,0,0,4.914,4.9177,4.9491,4.9355,4.9396,4.9503,4.9583,4.96,4.9654,4.9766,4.9785,4.9695,4.9877,4.9907,5.0043,5.0096,5.0019,5.003,5.0404,5.0409,5.0413,5.0414,0,0,0,0,0,0,4.9128,4.9173,4.9225,4.9356,4.9403,4.9609,4.9587,4.9606,4.9675,4.9676,4.9805,4.9823,4.9877,5.0025,5.0055,5.0111,5.0039,5.0399,5.0406,5.0412,5.0409,5.0418,5.0425,0,0,0,0,0,4.9113,4.9215,4.9228,4.9265,4.9471,4.9612,4.9638,4.9701,4.9679,4.9732,4.9804,4.9819,5.0085,5.0039,5.0073,5.0133,5.0396,5.0404,5.0411,5.0406,5.0416,5.0425,0,0,0,0,0,0,4.9085,4.9233,4.9249,4.9397,4.9492,4.9619,4.9687,4.971,4.9811,4.9807,4.9878,4.9907,5.0039,5.01,5.0045,5.0267,5.0239,5.0254,5.0223,5.0234,5.0242,5.0224,5.005,0,0,0,0,0,4.9097,4.9201,4.9323,4.9441,4.9488,4.958,4.9643,4.9683,4.9783,4.9823,4.9905,5.0,5.0105,5.0173,5.0276,5.0418,5.0446,5.0476,5.0484,5.049,5.0502,5.0582,5.0596,5.044,5.044,5.044,0,0,4.912,4.9214,4.9275,4.9438,4.9516,4.9621,4.9613,4.9724,4.9801,4.9839,4.9974,5.0037,5.0148,5.0288,5.0354,5.0342,5.0552,5.05,5.0504,5.0513,5.0591,5.0606,5.0619,5.0445,5.0444,5.0443,0,0,4.9218,4.9299,4.9407,4.9486,4.9605,4.9665,4.9691,4.9816,4.986,4.9997,5.0027,5.0119,5.0299,5.0377,5.044,5.0566,5.0584,5.0598,5.0639,5.0716,5.0728,5.074,5.0784,5.08,5.0609,5.0609,5.0609,0,4.9232,4.9392,4.9458,4.9569,4.9639,4.968,4.9789,4.9862,5.0007,5.0054,5.004,5.0267,5.0344,5.0503,5.0534,5.0584,5.0614,5.0583,5.0722,5.0734,5.0745,5.0789,5.0805,5.061,5.061,5.061,5.061,0,4.9403,4.9514,4.9586,4.9729,4.9807,4.9915,4.9997,5.0068,5.01,5.0161,5.0299,5.0394,5.0516,5.0557,5.0589,5.072,5.071,5.0708,5.0681,5.076,5.0802,5.0819,5.0611,5.0611,5.0611,5.0611,0,0,4.949,4.9668,4.9693,4.9758,4.9893,4.9979,5.0089,5.0211,5.027,5.0369,5.0462,5.0613,5.0613,5.0684,5.0725,5.0792,5.0886,5.0782,5.0786,5.0798,5.1036,5.1037,5.1055,5.0899,5.0902,5.0905,5.1027,0,4.9603,4.9803,4.9865,5.0031,5.0134,5.0174,5.027,5.0362,5.0421,5.0515,5.058,5.0687,5.0678,5.0721,5.079,5.086,5.0935,5.0852,5.0985,5.0988,5.0956,5.1077,5.1079,5.1189,5.1044,5.1047,5.1049,0,4.9762,4.9866,5.0042,5.0165,5.021,5.0295,5.0412,5.0502,5.0606,5.0645,5.0725,5.0761,5.0875,5.0842,5.0999,5.0942,5.0999,5.1042,5.1048,5.1063,5.1023,5.1095,5.1226,5.1242,5.1075,5.1073,5.1071,0,4.9806,4.999,5.012,5.0175,5.032,5.0379,5.0442,5.0544,5.0613,5.0715,5.076,5.0873,5.0934,5.1019,5.1084,5.1054,5.1236,5.1208,5.127,5.1269,5.1307,5.1303,5.1448,5.1344,5.1343,5.1343,5.1343,0,4.9926,5.0033,5.0143,5.0222,5.0342,5.0412,5.0529,5.0593,5.0684,5.0775,5.0816,5.0901,5.0981,5.1076,5.1127,5.125,5.1277,5.131,5.1323,5.1307,5.1303,5.1346,5.1339,5.1347,5.1346,5.1346,5.1345,0,4.9997,5.0075,5.0219,5.0346,5.038,5.0462,5.057,5.0648,5.0709,5.0825,5.0856,5.0951,5.1065,5.1138,5.1282,5.1317,5.1451,5.1461,5.1416,5.1422,5.148,5.1474,5.1658,5.1686,5.1562,5.1563,5.1564,0,5.0068,5.0151,5.0287,5.0353,5.0417,5.0521,5.0593,5.0665,5.0737,5.0863,5.0925,5.1042,5.114,5.1319,5.14,5.1511,5.1524,5.1581,5.154,5.1522,5.1524,5.1519,5.1527,5.1587,5.1588,5.1589,5.1589,0,5.0186,5.0221,5.0324,5.0441,5.0525,5.062,5.0714,5.0765,5.0853,5.0932,5.105,5.1125,5.1274,5.1389,5.1507,5.1569,5.1594,5.1602,5.1622,5.1607,5.1577,5.1594,5.1434,5.1597,5.1596,5.1596,5.1595,5.1595,5.026,5.0336,5.0444,5.0557,5.0636,5.0723,5.0803,5.0875,5.0975,5.1103,5.1139,5.1262,5.1363,5.1525,5.159,5.1686,5.1678,5.1708,5.1715,5.1721,5.1722,5.1562,5.1707,5.1707,5.1707,5.1707,5.1707,0,5.038,5.0452,5.0555,5.0687,5.0776,5.0793,5.0898,5.0971,5.1079,5.1173,5.1269,5.1404,5.1516,5.1606,5.1721,5.178,5.1794,5.1808,5.1804,5.1818,5.1722,5.1693,5.1795,5.1795,5.1795,5.1795,5.1795,5.1795,5.0453,5.0583,5.063,5.0798,5.0869,5.0992,5.105,5.1131,5.1206,5.1356,5.145,5.1509,5.1601,5.1723,5.1826,5.1849,5.189,5.1901,5.1927,5.1835,5.1825,5.1816,5.1789,5.1909,5.1909,5.2015,5.2016,5.2017]}]]